Starlink 31435

operational
NORAD ID: 59004 Int'l Des: 2024-036 Owner: SPXS Country: US Constellation: starlink
LEOCIRCULAR

Starlink 31435について

説明を読み込み中...

リアルタイム位置

3D地球を読み込み中...

次回通過

高度履歴

Altitude vs Time

uPlot chart will show altitude changes over time

軌道要素

1 59004U 24036G 25257.51519051 -.00001469 00000-0 -37452-4 0 9998
2 59004 53.1593 176.1938 0001984 88.5288 271.5940 15.30204319 88363
Epoch: Sep 14, 2025 • Age: 20 hours

現在のステータス

高度 487.5 km
速度 7.62 km/s
衛星直下点 -35.51°S, 92.47°W
打ち上げ日 Feb 23, 2024
運用期間 1.5 years
タイプ internet

技術仕様

分類 Payload
質量 730.00 kg
乾燥質量 700.00 kg
総質量 730.00 kg
長さ 0.30 m
直径 4.10 m
スパン 29.00 m
形状 Box + pan
製造者 SPXS
バスタイプ Starlink V2M
フェーズステータス In Orbit
所有者/国 SPXS/US

大規模コンステレーション

Loading constellations...